Weather in Tavrijsk

Ukraine / Kherson District     46°45′18″N   33°25′20″E
temp.,
°C
wind,
m/s
gust,
m/s
humid.,
%
clouds,
%
prec.,
mm/h
press.,
hPa
HPBL,
m
15 may, sat
sat1500:00+13sw487856 0.0 1012152
03:00+12ssw478512 0.0 1013125
06:00+13sw47845 0.0 1013140
09:00+19sw576290 0.0 1013632
12:00+23sw564718 0.0 10131346
15:00+24ssw554250 0.0 10131605
18:00+23sw444684 0.0 10131196
21:00+17w12620 0.0 101311
16 may, sun
sun1600:00+16ne116999 0.0 101313
03:00+15ne3473100 0.0 101378
06:00+15ne4675100 0.0 1012133
09:00+20ne576096 0.0 1012412
12:00+24ne564920 0.0 10101057
15:00+25ne5541100 0.0 10081365
18:00+24nne5852100 0.0 1006270
21:00+18ene3586100 2.8 1006111
17 may, mon
mon1700:00+18ne5129160 2.2 1005387
03:00+18ne3695100 2.8 1003163
06:00+17nw1195100 0.1 100231
09:00+18w118967 0.4 1002212
12:00+20ssw898160 0.9 1003710
15:00+20w797361 1.2 10051101
18:00+20wsw696578 0.3 10061023
21:00+15ssw598128 0.3 1008217
18 may, tue
tue1800:00+14ssw510945 0.0 1008251
03:00+13s410952 0.0 1008245
06:00+13s48968 0.0 1008233
09:00+19s56717 0.0 1008506
12:00+20ssw81172100 1.8 1008874
15:00+22sw9116140 1.9 10081174
18:00+21wsw912590 0.5 10091330
21:00+16w47750 0.7 1011260
19 may, wed
wed1900:00+14w46815 0.0 1012148
03:00+13wnw22852 0.0 101354
06:00+13sw1182100 0.0 101341
09:00+18ese2264100 0.0 1013392
12:00+18nne336969 0.4 1013498
15:00+19ne6763100 0.4 1011661
18:00+20ese71061100 0.0 1009595
21:00+17ese6137690 0.3 1008526